Theta_e
333 333 335 339 340 341 343 343 344 345 346 347 347 348 348 348 347 347 347 347 347 347 347 347 347 347 348 347 349 349 349 349 349 349 349 349 348 348 349 349 350 349 348 348 347 348 348 347 348 348 347 344 344 343 344 344 345 345 346 347 348 348 348 348 349 348 349 349 349 349 349 350 348 349 351 354 354 354 353 352 352 350 351 349 351
330 332 333 335 338 338 340 342 342 342 343 344 345 346 346 346 347 347 347 346 346 346 347 346 347 347 347 347 347 347 347 348 348 348 347 348 349 349 348 348 348 349 348 348 347 347 347 347 347 347 348 347 345 344 344 344 345 346 346 347 347 347 348 348 349 350 349 349 348 349 348 349 349 349 353 354 355 354 353 352 351 350 349 353 354
331 332 332 334 337 337 338 339 339 341 341 342 343 344 345 345 345 345 345 345 346 346 346 346 346 347 346 347 347 347 347 347 347 346 347 348 348 347 348 348 347 348 348 348 347 347 347 346 346 347 347 347 348 348 345 346 347 347 348 348 348 347 348 349 350 350 350 349 348 348 346 347 346 350 353 356 355 354 353 351 352 352 349 355 354
329 331 331 333 335 337 336 336 337 338 339 339 341 342 342 342 343 343 344 344 345 345 345 345 346 346 346 346 346 346 346 347 347 346 347 347 347 346 346 347 347 347 347 348 347 347 347 346 346 346 346 346 347 348 348 348 348 347 346 346 347 347 348 348 349 349 349 348 347 346 345 340 337 343 355 356 356 353 352 350 350 353 355 354 354
328 330 330 329 330 334 334 335 336 336 336 338 339 340 340 341 341 342 342 343 343 343 344 344 344 345 345 346 345 345 344 344 345 345 346 346 345 345 345 345 346 346 346 348 347 347 347 347 346 347 346 346 347 347 347 347 347 345 345 345 346 347 347 348 349 349 348 346 346 345 343 341 332 354 355 356 355 353 351 350 350 353 354 355 354
326 328 329 328 328 330 334 334 335 335 336 337 337 338 339 340 340 340 341 342 342 342 343 342 343 343 344 343 343 342 342 342 342 342 342 343 344 343 343 343 344 344 345 347 347 347 347 347 346 346 346 347 346 347 347 347 347 347 346 346 346 347 347 348 348 348 347 345 344 343 344 344 337 354 356 355 353 353 351 351 353 354 354 355 354
327 326 327 327 327 329 333 334 335 335 335 335 336 336 337 338 338 338 338 339 339 340 340 341 341 341 340 340 339 339 339 339 339 340 340 341 340 340 339 340 341 342 343 345 346 346 346 347 346 346 347 346 346 346 347 347 346 347 346 346 346 347 347 348 348 346 345 343 343 342 342 339 335 344 354 353 353 352 352 351 352 352 351 351 353
323 325 326 326 325 330 332 332 333 333 333 333 334 335 335 336 336 336 336 336 337 337 338 338 338 339 338 337 336 336 336 336 336 337 337 337 337 337 337 336 338 339 340 342 344 344 344 344 344 344 343 341 340 342 344 345 346 346 346 346 346 346 346 347 346 344 343 343 343 343 341 341 340 340 345 341 345 352 351 349 349 348 348 351 351
321 323 324 323 324 331 330 330 331 331 331 331 332 332 333 334 333 333 333 333 334 334 335 335 335 335 334 334 333 333 333 333 333 333 334 334 333 334 334 334 334 335 336 339 340 341 341 341 341 340 340 338 337 337 338 340 343 344 345 345 346 346 345 346 345 342 342 340 339 339 341 341 340 339 344 343 341 344 348 349 348 347 348 350 348
319 322 323 322 323 329 328 329 330 330 330 329 329 330 331 331 330 330 330 330 330 331 331 331 331 331 331 331 330 330 330 331 331 331 331 331 331 331 331 331 331 331 333 334 336 337 339 338 338 337 336 335 333 333 334 335 337 339 341 342 343 342 341 339 338 340 340 338 337 337 338 345 340 340 346 351 348 345 348 343 343 345 346 348 348
318 321 321 321 323 327 327 328 327 327 328 327 327 328 329 329 329 328 327 327 328 328 328 328 328 328 328 328 327 326 326 327 327 327 327 327 327 327 327 328 327 328 328 329 331 332 333 334 334 333 333 332 330 330 330 330 332 334 335 336 337 337 336 332 333 339 338 336 336 336 339 344 337 338 350 349 349 348 348 344 344 347 350 351 352
317 319 319 319 324 325 325 325 325 326 326 326 327 327 327 327 327 326 326 325 325 325 326 325 325 325 325 325 324 324 323 323 324 324 324 324 323 324 324 324 324 323 324 324 325 326 327 328 328 329 328 328 328 327 327 327 328 329 330 331 331 330 329 328 330 335 338 337 335 335 336 337 338 341 347 347 347 349 349 348 351 351 351 351 351
315 316 317 317 318 322 324 324 324 325 325 326 325 325 325 326 325 324 323 323 323 323 323 323 323 323 323 322 322 322 321 321 322 322 322 321 321 322 322 322 322 322 322 322 323 323 324 324 324 323 324 324 324 324 324 324 324 325 326 326 326 326 326 324 324 329 334 335 335 335 336 336 337 344 349 348 349 349 348 348 348 349 350 351 351
313 315 315 314 314 320 321 322 322 323 323 324 324 324 324 324 323 323 322 322 322 321 321 322 322 321 321 321 321 320 320 320 320 320 320 321 321 322 322 322 322 322 322 323 322 322 322 323 324 322 323 321 322 322 321 322 321 322 323 323 323 323 323 319 319 323 330 332 334 335 335 335 335 341 347 346 346 347 347 348 348 348 349 349 351
310 313 312 312 312 312 319 319 320 320 321 321 321 321 321 321 321 321 321 321 320 319 319 319 319 319 319 319 319 318 318 318 318 319 319 319 320 320 320 319 320 320 320 320 321 322 321 322 322 321 321 321 321 321 321 320 319 319 320 321 321 321 321 315 315 317 323 329 331 333 333 335 340 345 348 346 345 346 346 347 348 348 349 349 350
310 310 311 310 309 310 310 316 317 317 318 318 318 318 318 319 319 319 320 319 318 318 317 317 316 316 316 316 316 316 316 316 316 315 316 316 316 318 317 317 316 317 318 318 319 319 320 321 321 320 320 320 320 320 320 319 319 319 320 320 321 320 320 317 312 312 316 323 329 332 331 333 339 344 345 343 345 346 346 346 345 347 348 348 348
308 307 306 307 309 307 308 309 312 315 315 315 315 315 316 316 316 316 316 316 316 316 315 314 314 313 313 313 313 313 313 314 314 313 312 313 314 316 316 316 316 316 317 317 318 318 317 318 318 318 318 319 319 319 319 319 319 318 318 318 318 318 318 316 310 309 312 318 324 328 330 332 335 342 339 340 342 344 345 345 344 344 344 346 346
307 306 304 305 304 304 306 307 308 307 307 310 313 314 314 314 314 313 313 313 313 313 312 311 311 310 310 310 310 310 310 311 311 312 311 310 310 312 314 315 314 314 315 316 317 317 317 317 318 317 317 318 318 318 318 318 319 318 317 316 316 316 316 315 307 305 309 319 322 327 330 332 336 342 343 342 343 343 344 344 344 344 344 344 345
303 303 303 302 302 301 302 304 306 304 305 304 304 308 311 312 312 312 311 311 310 310 309 309 308 308 307 308 308 308 307 307 307 308 308 307 307 306 310 312 312 312 313 314 315 315 315 315 316 316 316 316 317 317 317 317 318 317 316 316 317 315 313 311 306 306 312 321 326 326 327 333 340 340 342 344 344 344 344 343 343 344 344 344 345
301 301 301 302 301 302 302 303 304 304 304 302 302 302 308 309 309 310 310 310 309 307 307 306 306 305 305 306 308 308 307 306 307 305 306 306 305 305 308 309 310 310 311 313 313 313 312 314 314 314 314 315 315 315 316 318 314 313 315 317 316 313 307 307 306 310 313 313 316 315 321 328 332 336 338 341 343 343 343 342 342 342 342 343 344
303 300 299 300 301 301 302 301 302 303 304 301 300 300 304 306 306 307 307 307 307 306 306 307 308 306 307 307 307 302 302 301 300 300 307 304 307 306 307 308 309 309 309 311 312 311 312 313 313 312 313 313 313 314 315 315 311 313 316 314 312 306 306 308 306 307 307 307 308 309 320 327 330 330 333 336 339 341 342 342 342 342 341 341 341
298 298 299 300 300 301 301 301 301 302 303 305 303 303 303 305 301 302 302 303 306 307 303 302 308 303 306 303 300 300 300 297 298 304 301 304 304 307 308 306 308 307 307 309 309 310 311 311 311 311 311 310 311 307 306 309 312 313 312 310 305 305 304 304 305 305 306 306 310 312 322 323 322 324 327 329 331 333 338 338 338 340 341 341 341
297 298 298 300 299 300 300 300 301 301 302 302 304 302 301 301 301 299 301 304 304 303 302 302 301 303 302 300 299 299 301 299 299 302 302 307 304 307 306 304 305 305 305 306 306 308 308 309 309 309 309 309 302 301 301 301 301 306 306 303 300 301 302 303 303 304 304 305 307 315 320 319 319 320 322 324 326 327 333 336 337 338 340 341 341
298 298 297 301 299 299 300 300 301 301 300 301 303 300 300 300 299 300 300 300 300 301 301 301 301 301 302 298 299 300 300 298 307 306 305 299 300 304 306 305 304 305 303 303 305 306 306 307 307 307 307 303 300 300 301 300 300 301 301 300 300 301 302 302 302 302 303 306 307 314 318 318 317 317 319 320 321 323 326 329 331 333 334 335 336
298 298 299 299 299 300 300 300 301 300 300 299 300 298 300 298 299 299 300 298 300 300 300 300 300 301 300 299 300 299 300 298 298 298 297 298 296 295 296 296 296 296 302 295 296 297 298 297 298 300 298 299 299 300 301 300 301 302 301 301 301 301 301 301 301 301 302 302 304 313 316 315 314 315 317 318 319 320 321 322 324 326 328 329 332
298 297 298 298 299 299 299 300 300 300 300 299 300 300 301 298 298 299 298 299 301 299 300 300 299 300 299 300 299 298 298 297 297 297 296 296 295 294 295 295 294 295 296 294 295 295 295 295 296 296 296 297 297 298 299 301 301 300 300 301 301 301 301 300 300 300 301 301 302 310 314 315 314 315 317 319 319 319 320 321 322 323 323 323 325
298 297 298 298 298 299 299 299 299 299 300 299 300 298 298 299 298 298 298 298 298 298 297 297 298 299 299 298 299 296 296 296 296 296 295 295 295 294 294 294 294 294 294 293 294 294 293 294 294 295 295 296 296 297 298 299 299 299 299 300 300 300 300 300 300 299 300 300 304 309 311 314 313 314 315 317 318 319 320 320 322 323 324 325 325
297 297 297 297 298 298 299 299 299 299 299 299 297 296 297 299 299 299 299 299 298 297 297 297 299 297 298 297 297 296 295 294 295 294 294 294 294 294 294 293 293 292 293 293 293 292 292 293 294 294 294 295 295 295 296 297 297 298 298 298 299 299 299 299 299 299 299 300 301 305 309 312 313 311 314 316 318 319 320 321 322 323 324 325 325
297 298 297 297 298 299 299 298 298 299 299 298 296 296 297 298 296 296 296 299 298 297 296 298 296 295 297 296 297 295 294 294 294 294 294 293 294 293 293 292 293 292 293 292 292 292 291 292 293 293 293 294 294 294 295 295 296 296 297 297 297 298 298 298 298 298 298 298 299 301 308 311 311 311 312 314 316 318 319 320 321 322 323 324 325
298 298 298 297 297 298 298 297 298 299 298 297 296 296 297 296 295 296 294 297 296 297 296 296 295 295 295 296 296 295 294 293 293 293 293 293 292 292 292 292 291 291 291 291 291 291 291 291 292 293 293 293 293 294 295 294 295 295 295 296 296 297 297 297 297 297 298 298 298 299 305 308 310 310 311 312 315 317 318 319 320 321 322 323 324
298 298 298 296 297 297 297 297 298 299 297 296 296 296 297 296 296 296 294 295 296 297 296 295 295 294 295 296 295 295 295 293 293 292 292 292 292 292 291 291 291 291 291 291 291 292 291 291 292 292 293 292 293 293 293 293 294 294 295 295 295 296 296 296 296 297 297 297 297 298 301 306 308 310 311 311 312 314 316 318 319 320 321 321 322
298 298 298 297 297 297 297 296 297 298 297 296 297 296 296 296 296 295 294 296 296 295 294 295 295 294 295 295 294 294 294 293 293 293 292 292 291 291 291 291 290 290 290 291 291 291 291 292 292 293 293 292 292 292 293 293 292 292 293 293 294 294 294 295 295 296 297 297 297 297 298 300 304 308 310 310 311 312 313 315 316 317 318 319 321
299 299 298 297 296 296 296 296 297 297 296 296 296 296 296 297 295 295 296 297 295 295 294 294 294 295 295 294 293 294 293 293 293 292 292 291 291 291 290 291 290 290 290 291 291 291 290 290 291 292 291 291 291 292 293 292 291 292 292 292 293 293 293 294 294 294 295 295 296 296 297 298 298 304 306 309 310 310 311 312 314 316 317 318 319
298 298 297 296 297 297 297 296 296 297 296 296 296 295 295 295 295 295 296 295 294 294 294 294 294 294 294 294 293 293 293 292 292 292 291 290 290 290 290 290 290 290 290 290 289 289 289 289 290 289 291 291 290 290 290 290 290 291 291 292 293 292 292 292 292 293 294 295 295 296 296 296 297 298 300 306 308 310 310 310 311 312 313 314 316
298 298 297 296 297 296 297 295 297 296 296 296 296 295 295 295 294 294 294 294 294 293 293 294 293 293 293 293 293 293 292 292 292 291 291 290 289 289 289 289 290 289 288 289 289 289 289 289 289 289 289 289 289 290 290 289 290 290 291 292 291 291 292 292 292 293 293 294 295 295 296 295 296 297 299 298 301 304 307 309 310 311 312 313 315
299 298 297 297 296 295 296 295 296 295 295 296 295 295 295 294 294 296 293 294 293 293 292 293 293 292 293 292 292 292 292 292 291 291 290 289 289 288 288 290 289 288 289 288 289 288 288 290 289 289 288 288 289 288 289 289 289 289 290 290 291 292 291 291 292 293 294 294 294 294 295 295 296 296 300 298 298 300 305 308 311 310 310 311 312
299 298 297 296 295 295 295 295 295 295 295 295 295 294 294 294 294 293 294 294 292 292 292 292 292 292 291 291 292 292 292 291 291 291 289 289 289 288 289 289 289 288 288 288 287 289 288 289 288 289 288 287 288 288 288 288 288 289 289 290 291 291 291 291 292 293 295 294 294 294 295 296 297 300 297 297 298 299 302 306 308 310 310 311 311
299 298 297 296 295 295 294 294 295 294 294 294 294 294 294 294 293 293 294 293 293 292 292 292 291 290 290 291 292 291 292 291 290 290 289 289 288 288 288 289 288 288 287 287 287 288 287 288 288 288 289 288 287 287 287 288 289 289 290 290 290 290 290 291 292 294 293 293 293 294 295 296 296 297 297 298 298 298 299 302 306 307 306 309 310
298 297 297 296 294 294 294 294 294 294 294 294 294 293 293 293 292 293 292 292 292 291 291 290 290 291 290 292 291 291 292 291 290 290 288 288 287 288 287 288 287 287 287 286 286 287 288 287 287 287 288 288 287 287 287 288 289 289 289 289 289 289 290 291 292 292 293 293 294 296 297 296 297 297 297 298 298 298 298 299 299 299 300 306 310
297 296 296 295 294 294 293 294 294 294 294 294 293 292 291 291 291 290 290 291 290 290 291 289 291 289 292 290 290 290 290 290 289 289 288 287 287 287 287 288 287 287 286 286 286 285 286 286 286 287 286 287 288 287 287 287 288 287 288 288 289 290 290 290 290 290 291 291 292 293 294 295 296 297 298 298 298 298 299 299 298 299 300 303 307
295 295 295 294 294 293 293 292 293 293 293 293 292 291 290 290 289 290 290 289 289 289 290 290 290 289 290 290 290 289 290 289 289 288 288 289 287 286 286 287 287 286 286 286 286 286 287 287 286 286 286 285 286 287 287 287 286 285 287 287 287 288 289 289 289 290 290 291 292 292 294 295 295 294 296 297 298 298 299 299 298 299 298 299 301
294 294 294 294 293 293 293 292 293 293 293 293 292 291 291 291 290 289 289 289 289 289 288 289 290 291 290 290 290 289 289 288 288 287 287 287 286 286 286 286 286 286 286 287 286 288 286 285 286 284 286 286 285 286 287 286 284 283 283 283 284 285 287 289 289 288 289 290 289 288 288 288 289 290 291 292 294 295 296 297 298 298 298 299 299
293 293 293 293 292 292 293 292 292 292 292 293 292 291 291 291 291 290 290 289 289 289 289 289 290 289 289 289 289 289 289 288 288 288 287 287 286 285 285 285 286 286 285 285 285 285 285 285 285 285 284 285 285 287 286 286 283 284 284 283 280 280 284 285 287 287 287 288 288 288 288 288 290 291 291 290 290 291 293 294 295 297 297 296 296
292 292 293 292 292 292 292 292 292 292 292 292 292 291 291 291 291 291 291 289 288 290 289 289 289 289 288 289 289 289 288 288 288 287 287 286 285 285 285 285 285 286 286 285 284 284 284 284 285 285 285 283 283 283 286 286 285 284 279 280 280 280 278 281 282 285 287 287 287 287 288 290 289 288 289 289 290 291 293 294 295 294 294 294 295
292 292 292 292 293 292 293 292 292 292 292 293 292 291 292 290 290 289 289 288 288 287 287 286 287 288 288 288 288 288 288 287 287 287 286 286 286 285 285 284 285 285 285 285 284 284 284 284 285 285 284 283 282 283 284 285 285 286 284 281 278 278 277 280 283 283 285 285 286 287 287 287 287 288 290 290 291 292 292 293 293 294 294 294 295
292 292 293 293 292 292 292 292 292 291 291 291 291 292 291 289 288 286 285 285 284 285 285 285 286 286 286 287 288 288 288 287 286 286 286 286 285 285 284 284 284 285 285 285 284 284 284 284 284 284 284 284 283 282 282 284 285 286 286 285 283 279 279 282 281 278 284 285 285 285 286 287 287 288 289 289 290 291 292 293 293 293 293 293 294
292 292 292 292 292 292 292 292 291 291 291 291 291 291 290 289 288 287 287 286 285 285 286 286 286 287 287 287 287 287 287 286 286 285 285 285 285 284 284 284 284 284 285 284 283 283 284 283 285 284 284 286 284 281 281 281 283 284 285 286 286 286 285 282 279 281 278 282 283 284 285 286 287 287 288 289 289 289 290 290 290 291 292 293 293
292 292 292 292 291 292 292 291 291 291 291 291 291 291 290 289 288 287 287 286 285 285 286 286 287 287 286 286 286 286 286 286 286 285 285 285 285 284 284 284 284 283 284 283 283 283 284 285 284 284 284 283 282 281 281 281 280 281 284 283 283 284 283 283 283 281 280 278 280 283 285 284 285 285 287 287 287 288 288 289 290 290 290 290 290
292 292 292 292 291 291 291 291 291 290 290 291 291 290 290 289 288 287 286 286 286 287 287 287 287 286 285 285 285 285 285 285 285 285 284 285 285 283 283 283 283 283 283 284 283 283 283 282 282 282 282 283 282 283 282 281 281 281 281 280 281 281 281 282 282 282 279 278 278 279 281 283 284 284 285 286 286 286 287 287 287 288 289 289 290
292 292 291 291 291 291 291 290 290 290 290 290 290 289 289 289 287 287 286 286 287 286 286 285 284 284 284 284 284 284 284 284 284 284 284 284 283 283 283 282 282 282 283 282 282 282 282 282 282 282 282 282 283 282 282 282 282 282 281 281 279 279 279 279 279 279 280 280 278 278 280 279 278 281 283 283 284 285 286 286 286 287 288 289 290
291 291 291 291 290 291 290 290 290 289 289 289 289 289 288 288 287 287 286 286 286 286 285 284 284 283 283 283 283 283 283 283 284 284 284 284 283 283 282 282 282 282 282 281 281 281 281 281 282 282 282 282 281 282 283 283 282 281 281 280 279 279 278 277 278 278 278 277 277 278 279 280 279 279 281 283 284 284 285 285 286 286 287 288 288
Wind_Speed
2 9 6 9 10 10 11 11 12 12 13 14 13 14 14 13 13 12 11 9 9 9 7 9 7 9 10 9 11 11 10 11 11 11 11 11 10 9 8 8 7 6 6 6 6 7 6 6 7 8 9 5 6 7 8 8 7 8 8 8 8 9 9 8 8 8 7 8 9 10 11 12 11 9 7 5 5 5 1 3 3 2 2 4 6
4 7 7 6 11 10 10 11 11 11 12 12 12 13 13 13 14 14 13 12 13 12 11 11 10 10 11 12 12 12 12 13 12 13 12 13 13 12 11 10 9 8 7 6 6 6 6 6 6 7 9 9 6 5 6 7 8 7 8 7 7 9 9 9 7 6 7 7 8 8 8 11 12 11 8 7 6 4 2 2 4 2 2 4 5
5 9 6 7 10 11 10 10 10 10 11 11 12 12 12 12 12 12 11 11 12 12 11 11 12 12 11 12 12 13 14 14 13 13 14 14 14 13 12 12 10 9 9 8 7 6 6 6 6 7 8 8 9 8 6 5 6 7 7 7 8 8 9 9 8 8 8 8 10 10 9 9 10 11 9 7 4 4 1 2 3 4 2 5 5
5 8 7 9 11 10 10 10 9 9 10 10 11 11 11 11 11 11 11 10 11 12 11 11 11 12 12 12 13 13 14 14 14 14 14 14 14 13 12 12 12 11 10 9 10 9 8 7 7 7 7 7 9 10 10 9 6 7 8 9 8 8 8 9 9 9 10 9 10 10 6 4 7 8 5 3 5 3 3 1 1 3 5 5 6
3 9 9 8 7 7 10 9 9 9 9 9 10 11 11 11 10 10 10 10 10 10 10 10 10 11 12 12 13 13 14 14 14 14 15 14 14 13 13 13 12 12 12 11 10 10 9 9 8 8 9 11 10 10 10 10 10 8 8 9 9 9 9 8 8 9 10 10 11 10 5 4 4 3 4 5 4 3 1 1 1 3 4 5 6
3 4 7 9 6 5 10 9 9 9 9 10 10 11 11 11 10 10 10 11 10 10 10 11 10 11 12 13 13 13 14 14 13 13 13 14 14 14 14 13 13 12 13 13 12 12 12 11 10 10 10 11 11 11 10 10 10 10 9 9 8 9 9 8 7 7 8 11 11 6 5 6 2 3 7 6 5 3 2 1 1 2 4 5 7
3 5 8 8 5 5 9 10 10 10 10 11 11 11 12 12 12 11 10 10 10 9 10 11 12 12 13 13 13 13 13 13 13 13 13 13 14 13 14 13 13 13 13 13 14 13 13 13 14 13 14 15 15 14 13 12 11 11 10 10 9 8 8 8 8 8 7 7 5 6 5 4 3 1 6 6 4 4 1 2 4 4 6 7 7
2 5 7 6 4 6 10 11 11 10 11 11 11 11 11 11 12 12 12 12 12 11 11 10 10 11 12 12 13 13 13 13 13 13 13 13 13 14 14 13 14 14 13 14 14 15 13 13 14 14 14 14 14 14 15 15 15 14 12 11 11 10 9 8 8 8 9 5 5 5 5 3 4 2 0 2 2 4 3 2 4 5 6 6 5
3 7 8 7 5 8 10 11 11 11 11 11 11 11 11 11 11 12 12 12 12 11 11 12 12 12 12 12 12 13 13 13 13 14 13 14 14 14 14 14 14 14 13 13 14 14 14 14 14 14 13 13 13 13 13 12 13 14 14 15 15 14 13 10 9 10 6 4 4 4 4 4 4 3 3 5 5 2 2 3 4 6 7 7 7
4 7 8 6 5 8 10 10 11 11 12 11 11 11 11 11 11 11 11 11 11 11 11 11 11 12 12 12 12 13 13 14 14 14 14 14 14 14 14 14 14 14 14 13 13 13 13 13 14 13 13 13 13 13 13 13 13 12 12 13 13 14 14 15 15 9 5 5 4 5 5 7 4 4 4 8 8 4 4 3 2 4 5 7 7
6 8 7 6 5 8 10 11 11 11 12 12 11 11 11 11 11 11 11 11 11 11 11 11 12 12 12 12 13 13 13 14 14 14 14 14 14 14 14 14 13 13 13 13 13 13 13 12 12 12 12 12 12 12 11 11 11 12 12 12 12 12 12 13 11 6 6 6 6 4 5 7 4 3 4 7 3 1 1 1 2 3 6 8 9
6 8 7 5 6 9 9 10 11 11 11 12 12 11 11 11 11 11 11 11 11 11 11 11 11 11 12 12 12 13 13 13 13 13 14 14 14 14 14 14 14 14 14 13 13 13 13 13 13 13 13 12 11 11 11 11 11 11 11 11 11 11 11 11 6 5 6 7 6 5 4 3 3 4 10 10 5 1 1 2 3 6 7 8 10
7 9 7 5 4 7 9 10 10 11 12 12 12 12 11 11 11 12 12 12 12 11 11 11 11 11 12 12 12 12 13 13 13 13 14 13 14 14 14 14 14 14 14 14 14 14 14 14 14 14 13 13 13 12 12 11 10 9 9 9 10 10 10 11 5 6 6 6 6 6 5 4 3 5 4 4 4 4 5 6 6 8 8 9 9
6 8 7 6 4 7 9 10 11 11 12 12 12 12 11 11 11 12 12 12 12 12 12 12 12 12 12 12 12 12 12 13 13 13 14 14 14 14 14 14 14 14 13 13 13 13 13 14 14 14 13 13 13 13 13 13 12 11 9 9 9 9 9 6 6 5 5 6 6 6 5 4 5 8 4 3 5 6 6 6 7 7 8 9 9
6 7 8 6 4 4 9 10 11 12 12 12 11 11 11 11 11 11 12 12 12 12 12 12 12 12 12 12 12 12 13 13 13 13 14 14 14 14 14 14 14 14 14 13 13 13 13 13 13 13 13 12 13 13 13 13 13 12 11 11 10 8 7 4 5 4 5 6 6 6 6 4 7 9 6 7 9 8 6 6 7 8 8 9 8
6 7 7 7 6 4 4 8 12 12 12 12 11 11 11 11 11 11 12 12 12 12 12 12 12 12 12 12 12 13 13 13 14 14 14 14 14 14 14 14 14 15 15 15 15 15 15 15 15 14 14 13 13 13 13 13 13 12 12 12 12 11 10 5 4 5 5 6 5 5 6 5 9 8 10 12 10 7 6 7 7 8 9 9 10
6 6 7 8 8 6 5 4 7 13 11 11 11 10 10 11 11 11 11 11 12 12 12 12 12 12 12 13 13 13 13 14 14 16 16 17 16 17 16 16 16 17 16 16 15 15 15 15 16 16 17 17 16 16 15 14 13 12 12 13 13 13 12 10 4 5 6 6 6 6 6 5 8 11 15 13 10 10 9 8 9 9 10 10 10
5 5 6 6 7 7 6 6 6 6 6 8 9 10 10 10 11 11 11 11 12 12 12 12 11 10 10 11 12 12 12 13 14 14 15 16 16 16 16 16 16 16 17 16 15 15 15 16 15 15 15 16 17 17 17 16 14 13 13 14 14 14 13 12 6 6 6 7 7 6 6 8 10 9 10 11 12 11 9 9 11 12 12 12 11
5 6 6 6 5 7 7 6 5 6 7 6 4 5 9 10 11 11 11 12 12 12 11 10 9 8 7 7 8 9 10 9 9 9 9 11 11 10 11 11 11 12 13 13 13 14 15 15 15 15 16 16 16 16 15 15 13 13 14 13 13 13 15 9 6 6 6 5 4 4 4 10 9 10 10 11 10 11 11 11 12 13 14 14 14
4 5 6 5 5 6 6 6 5 6 5 6 5 4 6 10 10 10 11 11 12 11 10 9 8 5 4 5 8 6 8 6 6 3 6 5 7 5 8 9 10 11 13 12 11 12 13 13 13 14 15 14 15 15 16 14 13 14 13 12 11 13 8 6 6 5 6 7 8 7 10 15 15 14 13 13 12 12 13 13 14 14 16 16 16
4 4 5 5 5 6 6 6 5 5 6 8 6 4 5 9 7 9 10 10 10 9 8 8 6 4 3 6 4 3 5 4 3 1 2 2 3 3 7 9 11 11 14 12 12 13 15 13 13 14 14 14 13 13 13 11 14 14 12 12 13 7 6 5 8 7 7 7 7 6 12 12 14 16 15 14 13 14 14 14 15 16 16 17 19
6 6 5 6 6 6 6 6 5 5 6 6 5 5 5 7 6 5 4 4 6 6 4 3 5 1 1 1 3 3 4 4 2 2 0 1 1 3 5 10 12 12 14 12 13 14 14 14 14 14 15 15 13 6 6 9 11 12 12 13 8 5 6 7 6 7 6 6 6 7 11 14 17 17 16 17 16 16 16 16 16 16 16 17 18
8 7 6 7 6 6 5 6 6 6 6 5 5 5 6 4 5 4 3 5 3 4 4 4 3 0 1 2 4 2 1 4 2 1 1 1 1 6 9 13 13 14 15 15 15 16 15 14 14 14 14 12 7 7 7 7 7 10 10 8 7 7 7 7 6 6 6 6 6 10 12 15 16 17 17 17 17 18 17 16 16 17 17 17 19
9 8 8 6 8 7 7 7 7 6 7 6 5 7 5 6 6 5 5 5 4 4 4 4 2 1 1 4 3 0 1 4 3 2 5 4 5 7 8 10 10 10 15 8 11 12 16 13 14 14 8 5 6 6 6 6 6 6 6 6 6 7 7 7 7 7 7 6 6 12 12 15 16 17 18 18 19 18 18 18 18 18 19 19 19
8 8 7 8 9 8 8 7 8 7 6 7 6 7 6 7 6 6 6 6 5 5 5 4 2 1 1 5 2 1 3 4 3 3 4 5 5 4 4 5 5 5 7 5 6 6 7 7 6 7 7 7 7 7 6 6 6 6 6 6 6 6 6 6 7 7 7 7 7 11 13 16 18 18 18 18 18 19 20 20 20 20 20 20 20
8 10 10 9 10 9 9 8 8 8 7 8 7 7 7 6 5 4 5 5 4 4 6 5 3 1 2 0 3 2 3 4 3 3 4 5 5 4 4 4 5 4 5 6 6 6 6 6 7 7 7 7 7 7 7 7 7 7 7 6 6 5 6 6 6 6 7 7 8 14 14 15 17 18 18 18 18 19 19 20 21 21 22 22 22
9 10 9 9 10 9 9 9 9 8 7 8 6 7 7 6 6 6 6 6 4 4 4 5 4 1 1 1 3 3 4 4 3 3 4 4 5 5 4 5 5 6 6 6 6 6 7 7 7 7 7 7 7 7 7 6 7 7 7 6 6 6 6 6 6 6 6 6 6 12 14 14 18 19 19 19 19 19 20 20 21 21 21 22 22
8 9 9 9 10 11 10 10 9 9 7 7 7 7 6 6 6 5 5 7 6 4 5 6 5 3 2 3 2 4 5 4 2 3 4 4 4 4 4 5 5 5 6 6 6 6 6 6 6 6 7 6 7 7 7 7 7 6 6 7 7 7 7 6 6 6 6 7 6 8 12 13 15 19 20 20 21 20 20 21 21 22 22 23 22
10 10 9 10 11 11 11 11 9 9 8 7 7 7 6 6 6 6 4 5 5 5 6 6 5 5 3 2 3 4 4 4 2 2 3 3 4 4 4 4 4 6 6 6 6 6 6 6 6 6 6 6 6 6 6 6 6 6 7 7 7 7 7 7 7 7 6 7 7 8 12 13 15 17 19 20 21 21 22 21 21 22 22 23 23
12 11 11 10 11 11 12 12 11 10 9 7 7 7 7 7 7 6 6 5 5 6 5 5 6 6 3 3 2 4 4 4 3 2 3 3 4 4 4 5 4 5 6 5 5 5 5 5 5 5 5 6 6 6 6 6 6 6 6 7 7 7 7 7 7 7 7 7 7 8 12 13 14 18 19 19 20 21 21 21 21 21 22 22 23
11 12 11 10 11 11 11 11 10 9 8 8 7 7 8 7 7 6 7 6 6 7 5 5 6 6 5 3 3 3 5 4 3 2 3 3 5 4 3 4 4 4 6 4 3 4 4 5 5 6 5 6 6 6 6 6 6 6 6 6 7 7 7 7 7 7 8 8 7 7 9 13 14 14 16 18 19 20 21 21 21 21 21 22 23
12 14 11 9 11 12 12 11 11 10 10 9 7 8 8 8 6 7 7 6 7 6 6 6 6 6 4 3 3 2 4 4 3 3 1 3 5 3 2 3 3 6 3 3 3 3 4 4 4 4 5 6 6 6 6 6 6 6 6 7 7 7 7 7 7 7 7 7 7 7 7 8 11 14 14 16 18 19 19 19 20 20 21 22 23
9 12 12 11 13 12 12 12 11 10 10 9 8 7 7 7 7 7 6 6 7 6 7 6 7 5 4 4 4 4 3 5 4 3 1 3 4 3 3 2 4 5 3 3 3 3 4 4 5 4 5 6 7 6 5 6 7 7 7 7 7 7 7 7 7 7 8 8 8 7 7 7 6 9 12 12 15 17 18 19 19 19 20 21 22
10 10 11 13 11 9 9 9 10 11 10 8 8 7 7 7 7 7 6 7 6 6 6 6 7 6 4 4 3 2 4 4 4 3 1 4 3 3 4 3 5 3 1 2 2 3 3 4 3 5 5 6 6 6 6 6 6 6 7 7 7 7 7 8 7 8 8 8 8 7 7 6 7 6 6 9 11 11 15 18 19 20 20 21 22
9 10 15 14 12 11 10 9 10 11 10 9 9 7 6 7 7 7 7 6 5 6 7 7 7 6 6 4 4 3 4 4 2 2 2 2 3 3 3 5 4 2 1 2 2 3 3 3 4 5 5 5 5 6 6 6 7 8 7 7 7 7 7 8 8 8 9 9 8 8 7 6 6 6 6 6 6 10 13 16 19 19 19 21 21
14 13 12 12 13 12 11 10 10 12 9 9 8 8 8 7 6 7 7 5 6 6 6 6 6 7 6 5 4 3 4 4 3 1 2 3 3 3 3 4 4 2 2 2 2 3 3 4 3 4 6 5 5 6 6 6 6 8 8 8 8 8 8 8 9 9 9 8 8 8 7 7 6 6 6 6 6 7 11 12 14 16 19 20 21
13 13 14 13 13 13 12 13 13 13 10 9 8 7 8 7 6 7 7 5 6 7 7 6 7 6 7 6 5 4 4 4 3 2 2 3 3 3 3 3 3 2 1 1 2 3 3 4 4 3 3 6 6 7 7 5 7 8 8 9 9 9 9 8 9 9 8 9 9 8 7 7 6 6 6 6 6 6 7 10 11 13 14 16 19
12 13 14 15 15 13 11 12 10 11 9 9 9 8 8 7 6 7 6 5 5 6 7 6 6 6 6 6 5 4 5 4 3 3 3 3 3 3 2 3 3 1 1 1 2 2 3 3 5 3 3 4 6 6 7 7 6 8 8 9 10 9 9 9 9 9 9 9 8 8 8 7 6 6 7 7 7 6 6 8 11 12 13 13 17
10 12 13 12 11 11 10 11 11 11 9 9 8 8 7 6 6 6 6 5 5 6 6 7 6 6 5 6 5 5 6 5 4 3 2 3 3 3 3 2 2 1 1 1 2 3 3 3 3 5 4 4 6 6 7 7 8 8 9 10 10 10 9 9 9 9 9 8 8 8 6 7 7 7 7 7 6 6 6 6 6 5 6 10 14
9 10 12 11 11 10 9 9 10 11 9 8 8 8 7 7 8 6 6 5 4 6 6 6 6 7 6 6 5 4 6 5 4 3 3 3 2 3 3 2 1 1 0 1 2 2 3 4 4 4 6 6 4 6 6 7 7 8 11 10 9 9 10 11 11 11 9 8 8 7 7 7 7 7 7 7 7 6 7 6 5 6 5 7 13
10 12 13 12 12 13 13 13 11 12 11 11 10 10 10 8 6 8 8 7 7 6 6 6 6 6 7 6 5 4 5 5 4 4 4 4 3 3 2 2 2 2 1 2 2 1 2 2 4 3 4 6 6 4 4 4 8 9 6 7 9 9 12 12 13 10 8 8 7 6 6 6 5 7 7 6 6 6 6 6 5 5 6 6 7
9 12 14 13 13 13 14 13 11 11 12 12 11 10 10 11 11 10 8 8 8 8 7 6 7 6 7 5 5 4 5 4 4 4 4 4 3 3 3 2 2 1 1 1 1 1 3 4 3 4 2 3 5 5 7 7 4 5 11 12 9 6 8 9 11 4 4 5 7 8 8 9 9 8 6 6 5 6 7 7 7 7 6 5 4
12 14 13 13 14 13 12 13 12 12 12 12 11 11 9 8 9 8 10 6 4 6 6 6 6 7 6 6 5 5 6 5 4 4 3 4 4 3 3 2 1 1 0 1 1 2 2 3 3 3 5 2 4 4 6 3 5 6 8 9 6 12 4 5 2 5 12 10 11 11 10 8 10 6 6 9 9 9 7 7 9 7 5 5 6
11 11 13 14 13 13 13 14 13 12 12 12 11 10 10 8 8 8 8 7 7 6 6 6 7 7 7 6 5 7 6 6 6 5 4 4 4 4 3 2 1 1 0 1 2 3 3 3 3 3 2 5 3 3 3 5 4 7 7 2 10 6 10 0 8 11 10 11 8 8 5 5 8 11 10 9 7 6 7 6 6 6 8 9 9
12 13 14 15 12 16 16 16 14 14 12 12 13 10 9 8 7 8 7 8 6 7 7 6 7 7 7 7 7 6 7 6 6 5 5 5 4 3 3 2 2 1 0 1 2 4 4 3 3 3 2 3 5 3 3 2 4 4 4 6 5 3 3 11 15 12 6 1 5 8 8 11 10 7 6 7 7 8 7 8 9 8 7 8 8
13 13 14 15 13 14 14 14 11 11 12 13 14 11 12 12 12 11 10 8 8 9 11 12 10 9 9 7 7 7 7 6 6 5 4 4 4 3 3 2 2 2 3 4 3 3 3 3 3 3 4 3 4 4 5 3 4 4 4 5 5 6 11 8 4 11 7 8 12 5 6 4 4 7 7 8 9 8 7 8 5 7 9 11 10
13 11 12 13 13 13 13 14 13 11 11 12 13 11 12 11 14 14 13 14 13 9 6 6 8 7 7 9 8 7 7 7 6 5 5 4 4 4 3 3 2 2 2 3 3 3 3 3 3 3 3 2 1 3 4 5 4 4 5 5 6 6 6 7 7 10 19 10 7 3 4 2 5 6 7 7 7 8 8 8 10 10 10 7 6
13 12 12 12 14 14 14 14 11 11 10 12 13 13 13 12 12 11 10 10 11 11 11 9 8 8 9 9 8 7 7 7 7 6 6 5 5 4 4 3 3 3 3 4 4 3 2 2 2 3 2 2 3 5 5 4 5 4 3 6 6 5 5 5 5 7 11 16 25 4 6 6 7 4 7 10 9 9 10 9 9 10 9 10 11
11 14 14 13 12 12 13 12 12 12 11 13 13 13 12 13 12 11 10 7 8 8 7 7 9 9 9 8 8 7 7 7 7 7 6 6 5 5 4 4 3 3 3 3 3 3 3 3 3 3 3 3 3 3 3 4 3 5 4 3 4 4 5 4 6 7 6 12 19 18 18 6 6 9 10 9 9 10 11 12 12 12 12 12 11
11 10 9 10 11 11 13 14 14 13 12 14 13 13 12 11 12 11 11 9 8 7 8 9 8 8 9 8 7 7 7 7 7 6 6 6 5 5 4 4 3 3 3 3 3 3 4 4 4 4 4 4 3 3 4 5 4 4 3 4 3 3 4 3 4 4 6 6 12 20 18 20 22 14 4 11 13 10 10 11 11 11 11 11 10
10 11 12 12 12 13 14 15 14 11 12 14 14 15 12 12 12 13 13 12 11 11 10 9 8 7 8 8 8 7 7 7 7 6 6 6 5 5 5 4 4 3 3 3 3 3 4 4 5 4 3 4 3 4 5 4 4 4 5 5 5 5 5 5 6 5 6 7 10 15 16 16 17 21 17 7 10 10 11 9 11 11 11 12 11
Wind_Direction
114 103 79 64 60 58 56 55 54 52 51 53 54 59 61 62 62 63 60 72 76 80 79 86 72 69 68 60 62 63 60 64 63 66 70 61 58 58 61 56 51 47 45 49 52 37 26 20 12 6 355 29 22 1 356 353 349 350 351 353 353 353 355 357 359 358 350 347 342 339 332 320 313 305 294 287 281 284 263 229 238 273 298 304 312
143 96 88 76 71 66 66 62 58 56 56 57 55 54 58 63 65 64 62 59 69 66 61 66 75 76 71 65 62 60 62 61 61 66 59 64 60 59 58 55 46 36 37 36 38 34 32 26 20 12 19 19 9 6 358 347 349 347 342 349 348 349 350 350 350 349 347 340 332 327 318 310 299 289 275 260 248 253 252 231 235 236 283 290 322
109 91 87 75 78 78 69 63 62 60 61 64 62 63 59 60 63 66 68 70 67 70 71 71 65 64 65 65 60 57 57 60 57 59 61 59 57 55 56 57 49 41 44 37 32 32 28 21 19 24 24 20 13 358 357 352 347 342 342 342 344 351 353 351 347 342 342 338 329 320 313 299 286 276 266 260 264 287 227 191 229 221 255 283 299
104 107 102 83 69 71 73 73 66 69 67 66 67 66 64 63 64 60 60 62 64 61 60 59 61 63 62 64 64 62 60 58 57 57 58 57 54 52 51 47 45 42 43 40 31 30 25 24 22 26 27 26 26 23 14 359 347 344 344 347 349 353 356 347 343 339 334 334 324 315 301 287 279 285 268 319 14 349 17 31 245 241 256 282 293
109 125 125 94 75 68 78 75 78 73 74 77 76 72 69 65 69 71 67 65 69 68 64 62 61 62 65 66 65 61 59 57 56 56 57 58 56 53 51 50 46 40 38 37 38 35 32 30 28 32 35 35 40 30 24 16 11 359 354 347 343 345 344 344 339 335 330 328 320 312 293 270 276 87 127 77 60 50 215 166 272 283 281 279 285
113 103 88 90 80 64 83 86 85 84 83 83 81 78 75 72 77 77 73 73 75 77 73 69 68 69 68 67 65 64 64 62 61 60 59 59 59 54 50 49 47 43 40 40 41 40 36 31 30 36 43 39 35 31 24 17 15 10 8 358 351 342 342 339 337 334 329 321 312 303 298 268 240 148 104 107 119 104 137 211 255 293 307 294 307
46 68 83 86 83 77 82 89 88 86 83 80 79 77 77 77 78 79 81 79 78 77 75 76 74 72 71 69 67 66 64 63 62 61 60 58 57 55 50 46 44 41 38 37 37 40 41 40 40 40 43 39 32 29 26 22 13 9 2 0 353 348 340 339 332 331 330 315 296 297 297 328 357 98 117 131 140 132 147 354 341 332 325 317 323
101 90 86 79 88 86 91 89 88 89 84 81 77 78 79 81 80 79 76 75 76 75 76 75 75 71 68 66 64 63 61 61 61 60 59 57 54 53 51 46 43 40 37 36 36 37 36 34 35 37 39 37 30 26 24 19 18 18 10 2 354 347 346 340 331 329 318 301 282 283 306 334 340 5 49 316 141 122 106 5 343 328 318 337 22
135 107 104 97 85 88 95 97 95 92 90 87 86 84 84 83 81 80 78 77 74 72 72 72 70 69 67 64 62 59 58 58 57 56 55 54 52 49 48 45 42 40 36 34 33 34 34 32 32 34 34 34 30 25 22 19 17 16 13 11 7 3 356 349 340 327 309 286 287 295 318 328 348 335 337 318 306 174 101 52 1 334 333 331 324
101 76 84 93 94 97 97 96 98 99 99 96 93 91 90 87 84 79 79 76 73 73 71 68 67 66 65 64 61 60 57 56 55 53 51 50 49 48 44 43 40 37 34 31 31 31 31 31 29 28 27 29 26 22 19 16 13 12 11 10 6 5 4 359 344 326 297 283 301 322 326 331 332 322 3 17 347 51 64 61 335 321 308 303 298
110 95 84 82 88 104 107 104 104 103 100 99 97 95 92 91 88 85 82 78 76 73 70 68 65 63 62 60 58 56 54 53 52 50 49 47 45 43 41 38 36 34 31 27 22 22 23 24 23 22 23 20 19 15 14 12 12 10 8 5 4 2 1 352 341 314 310 311 311 303 303 318 321 320 70 334 46 33 98 307 298 297 306 310 312
104 98 93 89 83 98 106 111 111 107 104 102 100 97 95 93 91 90 86 83 80 76 72 71 68 65 64 61 59 58 56 55 52 50 48 45 42 41 39 36 32 30 28 24 19 16 14 14 13 13 13 13 12 6 6 5 5 6 4 3 1 359 358 346 330 310 302 302 300 295 304 314 309 304 308 316 315 303 238 279 307 314 318 319 318
109 109 112 100 72 99 107 109 106 103 101 99 98 96 95 93 92 91 88 86 83 81 79 76 73 72 68 66 63 59 57 54 53 51 48 46 44 41 38 35 32 30 26 23 20 15 13 12 11 9 8 5 2 359 356 356 356 357 357 357 357 354 353 342 336 327 309 295 290 294 293 294 296 298 321 337 360 349 323 320 321 315 315 317 316
120 118 118 105 95 86 102 103 104 101 97 95 94 94 93 93 92 90 89 87 84 82 80 77 75 73 71 69 68 65 62 59 55 50 47 43 42 39 37 35 32 29 26 24 21 16 14 12 10 7 4 0 357 354 352 349 347 348 347 348 347 347 348 339 333 314 311 310 308 301 293 284 280 277 250 289 311 308 315 314 311 311 312 312 310
122 114 112 124 112 91 89 96 97 94 93 93 91 92 91 91 89 88 87 85 83 81 80 78 76 73 71 69 66 64 62 60 57 54 49 45 40 36 34 31 28 25 23 20 18 16 13 11 8 4 0 356 352 349 347 344 342 339 341 340 338 335 337 330 320 311 309 309 305 305 302 281 266 269 276 294 299 297 304 311 307 305 305 303 305
112 124 135 130 127 137 107 91 91 91 93 92 91 90 92 92 89 87 85 83 82 80 76 75 73 72 71 68 65 61 58 56 53 51 46 42 38 34 31 29 27 23 19 15 14 12 9 7 4 0 357 353 349 345 343 341 338 338 338 337 334 330 324 325 302 300 295 292 291 298 302 310 312 313 314 307 298 300 301 307 309 306 303 304 307
133 140 129 140 156 144 139 118 107 98 92 94 94 93 94 92 91 91 88 86 83 77 73 69 66 65 65 63 59 55 53 49 47 44 41 35 30 26 23 22 20 17 14 12 11 11 9 6 2 357 354 351 347 345 344 342 340 339 338 335 331 324 319 318 300 282 283 280 274 269 268 281 291 291 291 291 288 290 302 312 315 308 303 303 302
140 141 141 153 149 150 136 140 136 123 113 92 93 102 102 104 102 101 98 94 88 82 76 71 66 64 65 64 62 57 51 47 44 42 41 35 27 21 18 18 17 13 10 6 6 6 4 3 360 356 354 351 347 345 345 343 340 337 335 333 326 319 315 314 297 279 269 267 271 266 271 266 278 300 303 300 292 286 299 309 311 314 311 308 304
164 157 157 158 162 135 147 157 158 144 133 115 101 109 119 117 117 113 109 106 100 97 95 93 92 95 101 105 106 101 83 74 61 54 53 45 36 23 17 17 19 16 9 6 6 4 2 360 357 355 354 351 348 346 343 337 334 334 331 322 315 312 314 313 296 285 279 283 298 323 313 330 356 344 331 315 298 292 289 297 307 310 309 306 304
179 175 158 171 154 148 148 159 153 155 146 125 125 122 122 123 120 117 116 114 114 114 115 117 121 132 145 175 152 140 122 95 74 85 72 62 48 33 16 22 25 20 13 13 12 10 5 1 359 355 353 350 347 341 335 329 342 338 327 318 308 310 314 311 302 314 335 342 344 339 332 326 327 332 328 324 321 312 301 294 294 298 305 306 303
181 186 166 173 159 152 154 151 161 155 128 132 134 135 141 130 125 125 123 122 119 120 123 145 162 143 183 189 201 171 110 94 94 46 96 134 114 41 18 24 25 21 13 14 14 14 7 6 5 360 354 347 335 325 314 335 346 334 331 326 320 318 301 315 343 339 334 325 322 313 308 309 322 323 319 318 319 317 310 304 301 298 297 301 303
177 188 185 171 163 162 164 156 151 139 137 132 138 151 172 162 154 156 146 133 137 127 95 95 81 44 297 94 97 51 104 98 90 78 77 59 55 35 6 27 25 25 15 18 17 12 7 8 6 3 357 0 354 338 335 346 338 336 340 335 332 329 341 345 332 326 314 311 311 306 314 323 320 317 311 307 305 305 305 301 299 300 297 295 293
181 185 193 176 169 161 172 153 147 151 140 142 151 164 180 165 141 127 131 130 114 96 108 89 90 63 318 83 80 43 99 116 105 355 301 313 29 25 22 29 21 24 16 17 16 9 8 7 5 4 359 357 355 346 344 342 339 338 342 338 341 346 341 333 326 321 319 315 322 320 322 322 318 314 311 308 306 302 298 295 294 294 295 292 291
182 184 181 174 169 167 177 158 156 157 145 157 169 168 174 153 157 163 157 145 130 117 98 103 101 61 19 80 89 271 76 91 146 18 55 58 33 24 22 33 16 23 16 9 14 2 1 356 0 1 354 351 344 337 336 336 331 329 333 336 338 335 330 326 329 324 322 319 316 315 319 323 319 312 309 306 303 299 296 294 293 291 291 292 292
174 169 168 181 176 167 175 160 155 155 160 164 177 175 169 166 162 168 154 144 151 140 132 120 132 108 49 116 166 200 94 91 66 43 53 59 47 24 26 30 18 26 16 11 12 357 355 353 355 354 353 346 341 335 335 328 324 322 325 322 322 320 320 329 327 322 318 324 318 321 322 319 313 309 305 303 301 298 296 294 291 289 287 287 285
162 175 180 177 179 170 173 158 155 164 177 163 180 167 159 153 151 152 139 129 140 143 147 147 135 116 105 224 156 105 88 82 80 67 56 65 60 31 22 35 16 31 20 12 11 3 353 351 352 348 346 344 338 333 331 321 321 324 320 316 316 319 324 321 316 318 320 320 321 314 316 313 310 307 305 304 302 301 298 296 294 291 289 286 284
180 183 172 176 175 170 169 159 163 168 179 165 165 145 168 156 152 151 144 136 142 148 122 104 108 144 172 96 96 92 89 75 70 65 69 62 64 39 25 36 17 31 19 15 14 2 354 348 348 340 345 342 336 333 328 331 331 325 318 321 325 321 317 313 310 306 303 300 301 309 308 309 310 310 308 305 302 300 299 297 295 293 290 288 286
175 177 173 173 175 174 166 162 167 167 177 171 143 155 179 148 144 144 148 152 151 147 135 127 138 108 60 40 75 98 101 89 56 67 76 61 69 43 38 40 22 33 23 17 16 3 351 349 340 341 344 339 334 330 331 330 324 319 324 324 322 320 317 313 308 306 304 302 297 296 300 303 307 307 306 306 304 303 301 299 297 295 293 291 289
182 180 172 170 178 170 167 169 167 169 171 164 153 163 164 132 130 155 139 146 141 139 131 145 139 114 98 68 51 80 90 99 74 81 89 76 79 60 48 44 28 38 33 13 17 5 351 342 335 339 335 329 328 321 318 321 320 325 328 320 316 316 316 313 310 308 306 304 301 295 297 296 298 303 304 305 305 303 302 301 299 298 297 295 293
186 175 172 176 173 169 169 173 169 168 167 162 168 160 154 142 155 163 143 159 148 133 147 164 134 129 118 93 57 94 86 104 93 59 92 80 85 58 52 46 33 42 38 19 12 6 340 330 326 323 320 317 315 305 309 313 318 320 319 312 311 308 307 305 303 303 300 299 297 294 296 300 299 301 302 302 303 304 303 302 301 300 299 298 297
170 179 176 172 172 167 172 172 166 164 164 167 173 157 150 152 164 144 149 163 139 141 168 136 120 117 122 122 107 99 110 82 89 59 70 84 79 69 54 60 44 48 44 19 1 342 322 312 304 305 314 309 298 295 308 309 309 313 307 307 303 303 304 304 303 303 302 297 295 296 295 298 300 298 300 302 303 304 304 305 304 304 302 300 299
176 180 176 161 167 173 169 173 166 163 163 169 165 154 158 155 156 141 159 154 143 165 151 132 121 115 132 143 124 110 117 124 119 103 104 96 93 97 91 79 68 61 40 11 333 316 310 302 308 311 309 301 305 317 309 317 319 311 308 303 302 304 298 294 293 292 290 291 291 292 293 292 296 298 299 302 305 307 308 308 307 306 305 303 302
184 173 167 162 171 171 169 175 164 163 164 167 164 154 155 151 151 154 154 148 160 158 145 143 130 133 138 134 134 158 137 131 128 139 156 119 108 118 102 88 85 69 36 337 324 332 337 322 308 313 321 328 323 315 321 325 320 309 307 303 306 304 300 299 300 298 292 289 287 286 287 288 286 292 295 298 302 304 306 307 307 306 306 307 305
175 171 162 172 169 167 168 170 165 164 165 160 159 151 152 147 149 145 143 149 166 150 153 140 135 136 137 138 143 130 120 111 118 127 112 106 120 120 106 98 81 71 21 336 4 329 310 308 310 341 330 324 317 318 324 319 309 303 299 295 295 292 296 295 294 293 292 289 288 286 285 287 287 289 294 296 300 302 309 309 308 307 307 308 306
166 172 176 170 164 167 167 170 163 163 164 156 158 151 144 149 153 140 147 162 163 148 146 140 139 140 140 157 143 135 104 110 102 114 107 109 101 91 91 97 93 82 42 2 343 319 309 311 336 335 319 316 311 311 314 307 305 301 295 297 296 293 293 291 289 288 286 285 285 286 288 285 289 292 293 292 295 301 297 295 297 300 304 307 305
180 176 166 161 167 169 169 161 158 161 169 154 153 148 147 151 150 142 149 173 155 146 145 147 145 144 145 148 139 130 117 120 118 107 121 98 111 110 108 95 95 81 44 351 349 325 321 325 335 336 323 315 315 307 307 302 306 305 304 299 294 292 290 291 290 287 284 284 282 287 288 283 283 285 284 287 283 281 280 282 286 298 306 306 305
176 166 166 166 167 167 166 160 161 163 166 149 146 144 146 150 149 145 157 160 152 147 146 146 144 140 141 148 155 147 130 119 121 125 132 136 109 100 95 96 91 84 24 350 345 322 342 327 315 310 317 311 317 306 306 312 310 301 296 294 289 290 291 291 288 284 285 281 284 286 283 279 276 276 278 276 279 277 280 284 291 295 296 298 301
175 169 167 167 168 166 165 161 156 159 157 149 147 145 145 143 137 140 147 150 148 143 143 138 145 150 142 143 150 150 135 128 130 137 111 116 131 133 114 99 93 79 54 2 312 308 308 307 305 306 314 314 303 305 307 307 300 294 290 288 290 289 288 287 282 282 279 280 282 279 276 276 277 273 276 276 276 272 274 274 276 281 283 285 292
171 166 162 160 155 158 155 158 153 156 149 143 139 138 136 125 118 124 145 149 144 142 141 143 153 147 142 139 146 152 131 134 142 132 136 119 113 110 111 116 113 100 68 357 323 312 306 310 328 324 323 298 294 298 296 298 295 290 291 291 291 287 285 278 277 276 276 279 282 277 276 275 272 271 267 269 263 268 267 262 262 264 265 273 285
159 156 157 155 152 153 151 155 156 153 144 142 144 143 141 144 142 138 146 157 159 143 148 157 152 151 139 140 157 153 137 139 143 135 121 118 115 112 101 104 127 121 118 329 315 323 320 327 314 312 309 302 286 283 289 291 289 291 292 287 280 287 286 284 282 278 280 281 279 274 272 271 270 271 274 271 268 269 266 264 265 261 266 272 278
155 154 159 160 158 162 159 165 163 160 156 158 162 160 158 152 149 168 169 167 166 154 159 162 160 151 144 149 154 141 128 128 140 149 159 146 142 141 140 151 151 156 170 213 229 284 305 310 302 296 298 303 301 293 289 310 311 296 273 282 293 282 276 276 272 272 275 275 273 287 286 294 294 296 287 281 283 277 275 280 277 277 275 273 273
164 157 165 163 163 165 166 165 164 166 168 169 165 168 172 172 167 173 165 168 163 166 172 167 166 145 149 146 150 142 132 145 156 157 151 143 141 141 146 153 137 147 180 192 283 281 286 275 262 287 237 272 294 320 312 327 303 310 325 318 303 272 255 257 259 268 298 300 304 296 296 301 299 295 292 302 309 311 310 301 293 290 284 287 294
162 164 165 161 166 168 170 168 172 170 172 168 168 172 170 165 164 164 164 159 153 155 156 161 143 142 150 150 158 142 144 155 153 153 152 155 154 143 150 145 135 133 40 333 276 273 252 265 255 251 304 282 276 296 297 305 287 321 305 292 311 327 324 273 327 12 325 306 299 296 297 295 290 297 307 308 302 295 294 293 291 289 305 320 321
162 166 169 167 168 173 174 174 176 173 171 173 171 168 165 158 154 155 151 148 154 149 139 141 140 143 162 162 161 150 156 166 161 155 152 154 157 160 141 115 117 111 160 255 262 258 260 266 271 271 254 297 304 288 298 327 328 329 330 352 305 306 321 216 335 302 280 280 273 276 276 284 299 300 300 292 286 292 294 296 304 312 309 309 306
174 175 173 174 177 179 178 177 177 176 173 170 168 160 145 127 114 96 101 98 95 120 127 149 163 164 158 166 172 160 162 159 155 159 158 161 155 147 137 136 126 128 118 254 262 248 243 244 256 274 268 251 284 279 290 326 306 284 266 323 327 318 274 314 328 299 194 342 267 282 280 284 279 280 292 294 295 293 296 297 294 292 294 295 289
182 182 178 178 175 179 177 177 176 175 174 170 167 159 157 151 146 144 148 151 161 166 177 177 177 179 180 163 164 163 158 157 159 161 157 153 153 143 135 139 149 178 189 213 229 248 255 253 245 241 258 241 240 282 289 307 287 291 264 219 217 264 311 311 345 305 284 234 270 214 271 267 277 303 299 291 294 293 291 292 297 301 300 292 285
190 177 178 182 178 178 177 178 177 177 174 171 168 159 160 167 169 169 169 172 172 192 179 170 168 168 160 163 162 158 159 157 161 159 161 159 153 150 147 150 155 171 212 217 240 244 247 247 254 252 242 239 274 279 279 290 312 279 270 266 265 275 285 312 303 314 315 318 176 308 286 276 295 293 282 287 300 304 301 297 296 292 287 286 296
179 178 181 181 181 180 178 179 177 177 175 171 171 170 168 171 172 175 175 178 180 175 176 174 164 158 159 157 155 160 162 162 162 167 163 159 154 154 154 155 163 195 208 221 222 232 242 269 261 254 263 242 237 252 269 265 264 281 295 297 297 301 306 296 281 282 298 307 307 280 215 268 295 261 303 305 300 298 300 300 298 299 300 297 298
179 184 185 184 180 179 178 175 178 177 177 176 172 176 175 176 176 174 179 187 171 167 162 154 151 151 147 153 156 162 164 165 165 162 162 159 157 160 155 156 168 200 207 225 231 230 232 242 264 274 264 267 236 240 260 267 274 278 312 297 314 300 307 295 300 298 284 302 292 300 308 285 255 278 295 292 295 298 296 294 293 291 290 289 287
186 182 180 176 181 178 180 180 182 181 177 177 174 177 178 173 180 183 179 175 166 152 151 152 149 151 152 161 161 161 163 163 165 162 158 162 159 154 153 161 178 196 209 223 234 248 255 252 250 250 249 252 247 253 255 263 259 275 275 288 295 304 305 292 273 275 280 247 276 300 307 313 314 300 268 293 292 285 284 286 285 285 285 288 291
182 178 182 184 181 184 183 186 185 177 175 178 176 181 181 182 185 184 180 172 165 156 153 159 154 154 162 166 168 169 165 166 162 168 165 164 162 154 154 166 176 188 200 211 230 232 243 244 237 234 236 232 239 241 255 256 255 257 257 248 241 241 242 264 266 268 272 278 293 285 293 299 296 301 302 286 277 286 285 280 284 282 283 285 284